Regional Weather Roundup
Issued by NWS Grand Forks, ND

Home | Current Version | Previous Version | Text Only | Print | Product List | Glossary Off
Versions: 1 2 3 4 5 6 7 8 9 10 11 12 13 14 15 16 17 18 19 20 21 22 23 24 25 26 27 28 29 30 31 32 33 34 35 36 37 38 39 40 41 42 43 44 45 46 47 48 49 50

000
ASUS43 KFGF 161210
RWRFGF
PRAIRIE TO PINES  WEATHER ROUNDUP
NATIONAL WEATHER SERVICE EASTERN NORTH DAKOTA/GRAND FORKS ND
700 AM CDT TUE SEP 16 2014

 **SATELLITE DATA USED TO AUGMENT SKY COVER AT AUTOMATED STATIONS**
 *****  WEATHER ACROSS EASTERN NORTH DAKOTA  *****

CITY           SKY/WX    TMP DP  RH WIND       PRES   REMARKS
GRAND FORKS    PTCLDY    45  38  76 SW7       30.04R
6HR MIN TEMP:  42; 6HR MAX TEMP:  50;

GRAND FRKS AFB CLEAR     45  40  82 SW7       30.04S
GRAND FRKS NWS   N/A     45 N/A N/A SW3         N/A
DEVILS LAKE    CLEAR     50  37  62 SW9       30.02F
6HR MIN TEMP:  48; 6HR MAX TEMP:  55;

FARGO          CLEAR     44  37  76 S8        30.09F
WAHPETON ARPT  SUNNY     36  32  87 S6        30.12F
$$

 ***** WEATHER ACROSS CENTRAL AND WESTERN NORTH DAKOTA  *****

CITY           SKY/WX    TMP DP  RH WIND       PRES   REMARKS
BISMARCK       CLEAR     42  38  85 NE5       30.06S
6HR MIN TEMP:  42; 6HR MAX TEMP:  46;

MINOT          CLEAR     47  39  74 SW9       30.01S
6HR MIN TEMP:  47; 6HR MAX TEMP:  51;

JAMESTOWN      CLEAR     38  35  89 S5        30.06F
6HR MIN TEMP:  37; 6HR MAX TEMP:  44;

MINOT AFB      CLEAR     42  40  89 SW5       30.00S
GARRISON         N/A     43  39  86 CALM      30.03F
WILLISTON      CLEAR     36  30  79 CALM      30.02F
6HR MIN TEMP:  31; 6HR MAX TEMP:  39;

DICKINSON      CLEAR     40  37  89 S5        30.01F
6HR MIN TEMP:  37; 6HR MAX TEMP:  47;

HETTINGER      CLEAR     34  32  92 CALM      30.04F
6HR MIN TEMP:  34; 6HR MAX TEMP:  47;

$$

 *****  OTHER AIRPORT OBSERVATIONS IN OUR AREA  *****

CITY           SKY/WX    TMP DP  RH WIND       PRES   REMARKS
WALHALLA         N/A     52  39  62 W10G17    29.99S
GRAFTON AIRPOR FAIR      46  41  81 SW8       30.01S
VALLEY CITY AR FAIR      37  37 100 S7        30.08F
CANDO          FAIR      39  37  93 W5        30.03S
CAVALIER APRT  FAIR      52  39  62 W9        29.99S
GWINNER        SUNNY     41  37  87 SW9       30.12F
ROLLA          FAIR      41  39  93 SW8       30.02S
 ***** THE ABOVE OBSERVATIONS ARE NON NWS ARE NOT QUALITY
       CONTROLLED AND MAY MIS-REPORT RAIN FOR SNOW...
$$

  *****  WEATHER ACROSS NORTHERN MINNESOTA  *****

CITY           SKY/WX    TMP DP  RH WIND       PRES   REMARKS
FLAG ISLAND    CLOUDY    52  41  66 W14       29.94R
WARROAD        CLOUDY    50  43  76 SW10      29.98S
ROSEAU         MOCLDY    50  41  71 SW6       29.99S
HALLOCK        MOCLDY    43  39  87 S8        29.99S
THF RVR FALLS  CLEAR     43  37  81 SW8       30.05S
6HR MIN TEMP:  43; 6HR MAX TEMP:  46;

BAUDETTE       CLOUDY    49  40  71 SW8       29.99S
6HR MIN TEMP:  41; 6HR MAX TEMP:  49;

WASKISH        PTCLDY    50  43  76 CALM      30.04S
CROOKSTON      CLEAR     39  37  93 S7        30.07S
STEPHEN NDAWN    N/A     43  39  87 S7          N/A
GREENBUSH NDAW   N/A     46  41  81 SW12        N/A
$$
  *****  WEATHER ACROSS CENTRAL AND WEST MINNESOTA  *****

CITY           SKY/WX    TMP DP  RH WIND       PRES   REMARKS
FOSSTON        CLEAR     37  36  93 S7        30.09S
BEMIDJI        CLEAR     41  37  84 SW6       30.07S
PARK RAPIDS    CLEAR     42  36  79 CALM      30.11S
6HR MIN TEMP:  39; 6HR MAX TEMP:  44;

ELBOW LAKE     FAIR      38  35  90 S7        30.14S
6HR MIN TEMP:  37; 6HR MAX TEMP:  40;

WADENA         CLEAR     43  36  75 SW6       30.12F
DETROIT LAKES  CLEAR     45  37  76 SW5       30.12S
MOORHEAD       CLEAR     41  39  93 S8        30.11S
FERGUS FALLS   CLEAR     39  34  81 S5        30.14F
MORRIS MN      CLEAR     37  36  93 SE6       30.14S
STAPLES        CLEAR     39  36  87 S3        30.13S
$$
  *****  WEATHER ELSEWHERE ACROSS MINNESOTA  *****

CITY           SKY/WX    TMP DP  RH WIND       PRES   REMARKS
DULUTH         PTCLDY    44  35  70 W14       30.10R
6HR MIN TEMP:  44; 6HR MAX TEMP:  47;

INTRNTL FALLS  CLOUDY    42  40  92 SW7       29.99S
6HR MIN TEMP:  36; 6HR MAX TEMP:  42;

ELY            MOCLDY    41  37  87 SW5       30.04S
CLOQUET        CLEAR     43  37  81 SW8       30.11S
WHEATON        CLEAR     39  36  87 S6        30.15F
BRAINERD       CLEAR     37  34  89 S3        30.14S
6HR MIN TEMP:  36; 6HR MAX TEMP:  41;

HIBBING        MOCLDY    35  33  92 CALM      30.08S
6HR MIN TEMP:  30; 6HR MAX TEMP:  37;

ALEXANDRIA     CLEAR     42  36  79 SW8       30.16F
6HR MIN TEMP:  42; 6HR MAX TEMP:  46;

SAINT CLOUD    CLEAR     39  36  89 CALM      30.16F
6HR MIN TEMP:  39; 6HR MAX TEMP:  44;

MINNEAPOLIS    CLEAR     43  39  86 S5        30.19S
6HR MIN TEMP:  43; 6HR MAX TEMP:  48;

$$

  *****  WEATHER ACROSS SOUTH DAKOTA  *****

CITY           SKY/WX    TMP DP  RH WIND       PRES   REMARKS
SIOUX FALLS    CLEAR     40  38  93 CALM      30.19F
6HR MIN TEMP:  39; 6HR MAX TEMP:  44;

BROOKINGS      NOT AVBL
WATERTOWN      CLEAR     37  35  92 S5        30.15F
6HR MIN TEMP:  36; 6HR MAX TEMP:  43;

HURON          CLEAR     39  37  92 SE7       30.14F
6HR MIN TEMP:  39; 6HR MAX TEMP:  44;

SISSETON         N/A     51  39  63 SW15      30.11F
ABERDEEN       CLEAR     33  32  96 SE5       30.11F
6HR MIN TEMP:  32; 6HR MAX TEMP:  37;

MITCHELL       CLEAR     41  39  93 S7        30.16F
PIERRE         CLEAR     46  41  82 SE12      30.04F
6HR MIN TEMP:  46; 6HR MAX TEMP:  50;

MOBRIDGE       CLEAR     47  42  83 S7        30.03S
RAPID CITY     CLEAR     42  39  89 CALM      30.04R
6HR MIN TEMP:  41; 6HR MAX TEMP:  50;

$$

  *****  SOME WEATHER IN NEARBY STATES *****

CITY           SKY/WX    TMP DP  RH WIND       PRES   REMARKS
GLASGOW MT     CLEAR     45  34  65 E12       29.99F
6HR MIN TEMP:  44; 6HR MAX TEMP:  48;

GREAT FALLS MT MOCLDY    41  36  82 NW3       30.00S
6HR MIN TEMP:  39; 6HR MAX TEMP:  51;

CHEYENNE WY    MOCLDY    59  37  44 W16       30.21R
6HR MIN TEMP:  49; 6HR MAX TEMP:  59;

SCOTTSBLUFF NE PTCLDY    49  48  97 SE5       30.07F
6HR MIN TEMP:  49; 6HR MAX TEMP:  54; 6HR PCP: TRACE;

OMAHA NE       PTCLDY    45  43  93 S6        30.26S FOG
6HR MIN TEMP:  42; 6HR MAX TEMP:  48;

DES MOINES IA  CLEAR     44  42  93 W3        30.25S
6HR MIN TEMP:  43; 6HR MAX TEMP:  50;

DAVENPORT IA   CLEAR     38  36  92 W5        30.24R
6HR MIN TEMP:  38; 6HR MAX TEMP:  44;

CHICAGO IL     PTCLDY    45  42  89 NW6       30.20R
6HR MIN TEMP:  44; 6HR MAX TEMP:  51;

EAU CLAIRE WI  CLEAR     38  37  97 SW5       30.19S
6HR MIN TEMP:  38; 6HR MAX TEMP:  43;

LA CROSSE WI   FOG       45  43  93 S5        30.22S VSB 1/4
6HR MIN TEMP:  44; 6HR MAX TEMP:  47;

$$

  *****  SOME NATIONAL WEATHER *****

CITY           SKY/WX    TMP DP  RH WIND       PRES   REMARKS
LA GUARDIA NY  LGT RAIN  64  56  75 SW3       30.00S
6HR MIN TEMP:  62; 6HR MAX TEMP:  65; 6HR PCP:  0.01;

RALEIGH NC     PTSUNNY   69  66  90 CALM      30.07R FOG
6HR MIN TEMP:  67; 6HR MAX TEMP:  69;

ATLANTA GA     FOG       72  71  97 NW5       30.11R VSB 1/2
6HR MIN TEMP:  71; 6HR MAX TEMP:  72; 6HR PCP: TRACE;

NEW ORLEANS LA PTCLDY    76  74  93 W3        30.06R
6HR MIN TEMP:  75; 6HR MAX TEMP:  78;

OKLAHOMA CITY  MOCLDY    70  67  90 CALM      30.15S
6HR MIN TEMP:  70; 6HR MAX TEMP:  75;

ALBUQUERQUE NM CLOUDY    66  55  67 E10       30.29S
6HR MIN TEMP:  65; 6HR MAX TEMP:  68; 6HR PCP: TRACE;

SALT LAKE CITY CLEAR     64  44  48 SE10      30.08R
6HR MIN TEMP:  64; 6HR MAX TEMP:  70;

LOS ANGELES CA CLEAR     75  63  66 E6        29.76S



USA.gov is the U.S. government's official web portal to all federal, state and local government web resources and services.